This is the latest recevied weather packets stored in our database for station/object VK2BLR. If no packets are shown the sender has not sent any weather packets the latest 10 day(s).
| Time | Temp. | Humidity | Pressure | Rain* | Wind** | Luminosity | Snow |
|---|---|---|---|---|---|---|---|
| 1787993492 | 15° C | 66% | 1027.5 hPa | 0 mm | - | - | - |
| 1787992593 | 15° C | 65% | 1027.3 hPa | 0 mm | - | - | - |
| 1787991691 | 15.56° C | 64% | 1027.1 hPa | 0 mm | - | - | - |
| 1787990791 | 16.11° C | 63% | 1027 hPa | 0 mm | - | - | - |
| 1787989891 | 16.67° C | 62% | 1027 hPa | 0 mm | - | - | - |
| 1787988991 | 17.22° C | 61% | 1026.9 hPa | 0 mm | - | - | - |
| 1787988090 | 17.78° C | 55% | 1026.6 hPa | 0 mm | - | - | - |
| 1787987191 | 18.33° C | 53% | 1026.7 hPa | 0 mm | - | - | - |
| 1787986291 | 18.33° C | 53% | 1026.5 hPa | 0 mm | - | - | - |
| 1787985391 | 18.89° C | 52% | 1026.6 hPa | 0 mm | - | - | - |
| 1787984491 | 18.89° C | 52% | 1026.6 hPa | 0 mm | - | - | - |
| 1787983592 | 19.44° C | 51% | 1026.5 hPa | 0 mm | - | - | - |
| 1787982691 | 19.44° C | 52% | 1026.4 hPa | 0 mm | - | - | - |
| 1787981792 | 19.44° C | 51% | 1026.4 hPa | 0 mm | - | - | - |
| 1787980891 | 20° C | 51% | 1026.4 hPa | 0 mm | - | - | - |
| 1787979992 | 20° C | 50% | 1026.4 hPa | 0 mm | - | - | - |
| 1787979091 | 20° C | 51% | 1026.7 hPa | 0 mm | - | - | - |
| 1787978191 | 20° C | 51% | 1026.6 hPa | 0 mm | - | - | - |
| 1787977291 | 20° C | 50% | 1026.9 hPa | 0 mm | - | - | - |
| 1787976392 | 20.56° C | 50% | 1026.8 hPa | 0 mm | - | - | - |
| 1787975491 | 20.56° C | 50% | 1026.9 hPa | 0 mm | - | - | - |
| 1787974591 | 20.56° C | 50% | 1026.8 hPa | 0 mm | - | - | - |
| 1787973691 | 21.11° C | 50% | 1026.9 hPa | 0 mm | - | - | - |
| 1787972792 | 20.56° C | 50% | 1026.8 hPa | 0 mm | - | - | - |
| 1787971891 | 21.11° C | 49% | 1027 hPa | 0 mm | - | - | - |
* Rain latest hour (hover to see other rain measurements)
** Current wind speed in m/s (hover to see current wind gust speed)